• In Slovakia
  • List of Countries
  • For 7 days
  • Water Temperature
  • Satellite Maps
  • Weather Map
  • Weather Widgets
  • user-avatar
    Login

    Hourly Weather Brzeznica

    Today, 18 October, Thursday

    Time Temperature Precipitation Wind Pressure Humidity
    00:00 +14°C° 0.2 mm 1 mps 747 mmHg 68%
    01:00 +15°C° 0 mm 1 mps 747 mmHg 70%
    02:00 +15°C° 0.3 mm 1 mps 747 mmHg 73%
    03:00 +14°C° 0.3 mm 1 mps 746 mmHg 76%
    04:00 +14°C° 0.3 mm 1 mps 746 mmHg 78%
    05:00 +14°C° 0.2 mm 1 mps 746 mmHg 79%
    06:00 +14°C° 0.2 mm 1 mps 746 mmHg 80%
    07:00 +14°C° 0.2 mm 1 mps 746 mmHg 80%
    08:00 +16°C° 0 mm 1 mps 746 mmHg 74%
    09:00 +18°C° 0 mm 1 mps 746 mmHg 68%
    10:00 +20°C° 0 mm 1 mps 746 mmHg 61%
    11:00 +20°C° 0.1 mm 1 mps 746 mmHg 57%
    12:00 +21°C° 0.1 mm 1 mps 746 mmHg 53%
    13:00 +22°C° 0.1 mm 1 mps 746 mmHg 49%
    14:00 +21°C° 0 mm 1 mps 746 mmHg 51%
    15:00 +21°C° 0 mm 1 mps 746 mmHg 53%
    16:00 +18°C° 0 mm 0 mps 745 mmHg 56%
    17:00 +19°C° 0 mm 1 mps 746 mmHg 60%
    18:00 +18°C° 0 mm 1 mps 746 mmHg 63%
    19:00 +15°C° 0 mm 1 mps 746 mmHg 67%
    20:00 +15°C° 0 mm 1 mps 746 mmHg 69%
    21:00 +14°C° 0 mm 1 mps 746 mmHg 71%
    22:00 +14°C° 0 mm 1 mps 746 mmHg 73%
    23:00 +14°C° 0 mm 1 mps 746 mmHg 75%

    Tomorrow, 19 October, Friday

    Time Temperature Precipitation Wind Pressure Humidity
    00:00 +13°C° 0 mm 1 mps 747 mmHg 77%
    01:00 +13°C° 0 mm 1 mps 747 mmHg 79%
    02:00 +12°C° 0 mm 2 mps 747 mmHg 82%
    03:00 +12°C° 0 mm 2 mps 747 mmHg 84%
    04:00 +12°C° 0 mm 2 mps 747 mmHg 86%
    05:00 +12°C° 0 mm 2 mps 747 mmHg 87%
    06:00 +10°C° 0 mm 2 mps 747 mmHg 88%
    07:00 +10°C° 0 mm 2 mps 748 mmHg 89%
    08:00 +13°C° 0 mm 2 mps 748 mmHg 84%
    09:00 +13°C° 0 mm 3 mps 748 mmHg 78%
    10:00 +16°C° 0 mm 3 mps 748 mmHg 72%
    11:00 +16°C° 0 mm 3 mps 748 mmHg 69%
    12:00 +17°C° 0 mm 3 mps 748 mmHg 66%
    13:00 +18°C° 0 mm 3 mps 748 mmHg 64%
    14:00 +17°C° 0 mm 3 mps 748 mmHg 66%
    15:00 +17°C° 0 mm 3 mps 748 mmHg 69%
    16:00 +16°C° 0 mm 3 mps 748 mmHg 72%
    17:00 +14°C° 0 mm 3 mps 749 mmHg 76%
    18:00 +13°C° 0 mm 3 mps 749 mmHg 81%
    19:00 +13°C° 0 mm 2 mps 750 mmHg 85%
    20:00 +13°C° 0 mm 2 mps 750 mmHg 88%
    21:00 +12°C° 0 mm 2 mps 750 mmHg 90%
    22:00 +12°C° 0 mm 2 mps 750 mmHg 92%
    23:00 +12°C° 0 mm 2 mps 750 mmHg 92%

    Day after tomorrow, 20 October, Saturday

    Time Temperature Precipitation Wind Pressure Humidity
    00:00 +12°C° 0 mm 1 mps 751 mmHg 93%
    01:00 +11°C° 0 mm 1 mps 751 mmHg 93%
    02:00 +11°C° 0 mm 1 mps 751 mmHg 93%
    03:00 +10°C° 0 mm 2 mps 751 mmHg 93%
    04:00 +10°C° 0 mm 2 mps 751 mmHg 93%
    05:00 +10°C° 0 mm 2 mps 751 mmHg 92%
    06:00 +10°C° 0 mm 2 mps 752 mmHg 91%
    07:00 +10°C° 0 mm 2 mps 752 mmHg 91%
    08:00 +10°C° 0 mm 2 mps 752 mmHg 85%
    09:00 +11°C° 0 mm 3 mps 752 mmHg 80%
    10:00 +12°C° 0 mm 3 mps 753 mmHg 75%
    11:00 +12°C° 0 mm 3 mps 753 mmHg 71%
    12:00 +13°C° 0 mm 3 mps 753 mmHg 67%
    13:00 +13°C° 0 mm 3 mps 753 mmHg 63%
    14:00 +13°C° 0 mm 3 mps 752 mmHg 62%
    15:00 +13°C° 0 mm 3 mps 752 mmHg 62%
    16:00 +12°C° 0 mm 3 mps 752 mmHg 61%
    17:00 +11°C° 0 mm 3 mps 753 mmHg 64%
    18:00 +10°C° 0 mm 2 mps 753 mmHg 68%
    19:00 +8°C° 0 mm 2 mps 753 mmHg 71%
    20:00 +8°C° 0 mm 2 mps 754 mmHg 74%
    21:00 +8°C° 0 mm 2 mps 754 mmHg 77%
    22:00 +7°C° 0 mm 2 mps 754 mmHg 80%
    23:00 +7°C° 0 mm 2 mps 754 mmHg 82%

    21 October, Sunday

    Time Temperature Precipitation Wind Pressure Humidity
    00:00 +7°C° 0 mm 2 mps 754 mmHg 84%
    01:00 +6°C° 0 mm 2 mps 754 mmHg 86%
    02:00 +6°C° 0 mm 2 mps 754 mmHg 86%
    03:00 +6°C° 0 mm 2 mps 754 mmHg 87%
    04:00 +5°C° 0 mm 2 mps 754 mmHg 87%
    05:00 +5°C° 0 mm 2 mps 754 mmHg 87%
    06:00 +5°C° 0 mm 2 mps 754 mmHg 87%
    07:00 +5°C° 0 mm 2 mps 754 mmHg 87%
    08:00 +7°C° 0 mm 2 mps 754 mmHg 81%
    09:00 +8°C° 0 mm 2 mps 754 mmHg 75%
    10:00 +10°C° 0 mm 2 mps 754 mmHg 69%
    11:00 +12°C° 0 mm 2 mps 754 mmHg 66%
    12:00 +13°C° 0 mm 2 mps 753 mmHg 63%
    13:00 +14°C° 0 mm 2 mps 753 mmHg 61%
    14:00 +13°C° 0 mm 2 mps 753 mmHg 63%
    15:00 +13°C° 0 mm 2 mps 753 mmHg 65%
    16:00 +12°C° 0 mm 1 mps 752 mmHg 67%
    17:00 +12°C° 0 mm 1 mps 752 mmHg 72%
    18:00 +11°C° 0 mm 1 mps 752 mmHg 76%
    19:00 +9°C° 0 mm 0 mps 752 mmHg 80%
    20:00 +8°C° 0 mm 0 mps 752 mmHg 82%
    21:00 +8°C° 0 mm 0 mps 752 mmHg 83%
    22:00 +7°C° 0 mm 0 mps 752 mmHg 85%
    23:00 +7°C° 0 mm 0 mps 752 mmHg 85%

    22 October, Monday

    Time Temperature Precipitation Wind Pressure Humidity
    00:00 +8°C° 0 mm 1 mps 752 mmHg 86%
    01:00 +8°C° 0 mm 1 mps 752 mmHg 87%
    02:00 +8°C° 0 mm 1 mps 751 mmHg 87%
    03:00 +8°C° 0 mm 1 mps 751 mmHg 87%
    04:00 +7°C° 0 mm 1 mps 751 mmHg 87%
    05:00 +8°C° 0 mm 1 mps 751 mmHg 86%
    06:00 +8°C° 0 mm 1 mps 751 mmHg 85%
    07:00 +8°C° 0 mm 1 mps 751 mmHg 84%
    08:00 +10°C° 0 mm 1 mps 751 mmHg 76%
    09:00 +11°C° 0 mm 1 mps 751 mmHg 68%
    10:00 +13°C° 0 mm 1 mps 751 mmHg 60%
    11:00 +14°C° 0 mm 1 mps 750 mmHg 57%
    12:00 +15°C° 0 mm 1 mps 750 mmHg 54%
    13:00 +16°C° 0 mm 1 mps 749 mmHg 51%
    14:00 +15°C° 0 mm 1 mps 749 mmHg 53%
    15:00 +15°C° 0 mm 1 mps 749 mmHg 55%
    16:00 +14°C° 0 mm 1 mps 749 mmHg 57%
    17:00 +13°C° 0 mm 1 mps 749 mmHg 61%
    18:00 +12°C° 0 mm 2 mps 749 mmHg 66%
    19:00 +10°C° 0 mm 2 mps 749 mmHg 70%
    20:00 +10°C° 0.3 mm 3 mps 749 mmHg 75%
    21:00 +10°C° 0.3 mm 3 mps 749 mmHg 80%
    22:00 +9°C° 0.3 mm 3 mps 749 mmHg 85%
    23:00 +8°C° 0.6 mm 4 mps 749 mmHg 86%

    23 October, Tuesday

    Time Temperature Precipitation Wind Pressure Humidity
    00:00 +8°C° 0.6 mm 4 mps 749 mmHg 86%
    01:00 +8°C° 0.6 mm 4 mps 749 mmHg 87%
    02:00 +8°C° 0.1 mm 3 mps 748 mmHg 85%
    03:00 +8°C° 0.1 mm 3 mps 748 mmHg 84%
    04:00 +7°C° 0.1 mm 3 mps 748 mmHg 82%
    05:00 +7°C° 0 mm 2 mps 748 mmHg 83%
    06:00 +6°C° 0 mm 2 mps 748 mmHg 83%
    07:00 +6°C° 0 mm 2 mps 747 mmHg 83%
    08:00 +7°C° 0 mm 2 mps 747 mmHg 77%
    09:00 +8°C° 0 mm 2 mps 746 mmHg 71%
    10:00 +9°C° 0 mm 2 mps 746 mmHg 65%
    11:00 +9°C° 0 mm 2 mps 745 mmHg 63%
    12:00 +9°C° 0 mm 2 mps 745 mmHg 61%
    13:00 +10°C° 0 mm 1 mps 744 mmHg 59%
    14:00 +10°C° 0 mm 1 mps 744 mmHg 60%
    15:00 +10°C° 0 mm 1 mps 743 mmHg 62%
    16:00 +9°C° 0 mm 1 mps 743 mmHg 64%
    17:00 +8°C° 0.1 mm 2 mps 742 mmHg 67%
    18:00 +7°C° 0.1 mm 2 mps 742 mmHg 71%
    19:00 +7°C° 0.1 mm 2 mps 742 mmHg 74%
    20:00 +6°C° 0 mm 2 mps 742 mmHg 76%
    21:00 +6°C° 0 mm 2 mps 741 mmHg 78%
    22:00 +6°C° 0 mm 2 mps 741 mmHg 79%
    23:00 +5°C° 0.4 mm 3 mps 741 mmHg 81%
    Show more